TimeCST,TemperatureF,Dew PointF,Humidity,Sea Level PressureIn,VisibilityMPH,Wind Direction,Wind SpeedMPH,Gust SpeedMPH,PrecipitationIn,Events,Conditions,WindDirDegrees,DateUTC
12:15 AM,57.2,39.2,51,30.19,10.0,SE,4.6,-,N/A,,Scattered Clouds,140,2012-11-19 06:15:00
12:35 AM,59.0,39.2,48,30.18,10.0,SE,4.6,-,N/A,,Clear,140,2012-11-19 06:35:00
12:55 AM,59.0,39.2,48,30.19,10.0,SSE,5.8,-,N/A,,Clear,150,2012-11-19 06:55:00
1:15 AM,59.0,39.2,48,30.18,10.0,SE,6.9,-,N/A,,Scattered Clouds,140,2012-11-19 07:15:00
1:35 AM,59.0,39.2,48,30.18,10.0,SSE,5.8,-,N/A,,Scattered Clouds,150,2012-11-19 07:35:00
1:55 AM,57.2,41.0,55,30.18,10.0,SSE,6.9,-,N/A,Rain,Light Rain,150,2012-11-19 07:55:00
2:35 AM,57.2,41.0,55,30.18,10.0,SSE,5.8,-,N/A,,Mostly Cloudy,150,2012-11-19 08:35:00
2:55 AM,59.0,39.2,48,30.18,10.0,SSE,5.8,-,N/A,,Mostly Cloudy,160,2012-11-19 08:55:00
3:15 AM,59.0,39.2,48,30.17,10.0,SSE,8.1,-,N/A,,Mostly Cloudy,150,2012-11-19 09:15:00
3:55 AM,59.0,37.4,45,30.17,10.0,SSE,6.9,-,N/A,,Overcast,150,2012-11-19 09:55:00
4:15 AM,59.0,37.4,45,30.17,10.0,SSE,5.8,-,N/A,,Overcast,150,2012-11-19 10:15:00
4:35 AM,57.2,37.4,48,30.17,10.0,SSE,5.8,-,N/A,,Overcast,150,2012-11-19 10:35:00
4:55 AM,57.2,37.4,48,30.17,10.0,SSE,4.6,-,N/A,,Overcast,150,2012-11-19 10:55:00
5:15 AM,59.0,37.4,45,30.17,10.0,SE,3.5,-,N/A,,Overcast,140,2012-11-19 11:15:00
5:35 AM,57.2,39.2,51,30.17,10.0,SE,3.5,-,N/A,,Mostly Cloudy,140,2012-11-19 11:35:00
12:55 PM,71.6,55.4,57,30.12,10.0,SSW,8.1,-,N/A,,Clear,210,2012-11-19 18:55:00
4:55 PM,69.8,55.4,60,30.09,10.0,SE,5.8,-,N/A,,Clear,130,2012-11-19 22:55:00
10:35 PM,51.8,51.8,100,30.15,10.0,Calm,Calm,-,N/A,,Clear,0,2012-11-20 04:35:00
10:55 PM,51.8,51.8,100,30.15,10.0,Calm,Calm,-,N/A,,Clear,0,2012-11-20 04:55:00
11:15 PM,50.0,50.0,100,30.15,7.0,Calm,Calm,-,N/A,,Clear,0,2012-11-20 05:15:00
11:35 PM,50.0,50.0,100,30.14,10.0,Calm,Calm,-,N/A,,Clear,0,2012-11-20 05:35:00
11:55 PM,50.0,48.2,94,30.13,10.0,Calm,Calm,-,N/A,,Clear,0,2012-11-20 05:55:00